• In Belgium
  • List of Countries
  • For 7 days
  • Water Temperature
  • Satellite Maps
  • Weather Map
  • Weather Widgets
  • user-avatar
    Login

    Hourly Weather Kannapolis

    Today, 23 February, Friday

    Time Temperature Precipitation Wind Pressure Humidity
    00:00 +18°C° 0 mm 2 mps 751 mmHg 96%
    01:00 +17°C° 0 mm 2 mps 751 mmHg 97%
    02:00 +17°C° 0 mm 2 mps 751 mmHg 97%
    03:00 +18°C° 0 mm 1 mps 751 mmHg 97%
    04:00 +18°C° 0 mm 1 mps 751 mmHg 97%
    05:00 +16°C° 0 mm 1 mps 751 mmHg 98%
    06:00 +16°C° 0 mm 1 mps 751 mmHg 98%
    07:00 +16°C° 0 mm 1 mps 751 mmHg 98%
    08:00 +17°C° 0 mm 2 mps 751 mmHg 93%
    09:00 +19°C° 0 mm 2 mps 751 mmHg 87%
    10:00 +20°C° 0 mm 2 mps 751 mmHg 82%
    11:00 +22°C° 0 mm 3 mps 751 mmHg 75%
    12:00 +24°C° 0 mm 3 mps 751 mmHg 69%
    13:00 +25°C° 0 mm 3 mps 750 mmHg 62%
    14:00 +25°C° 0 mm 3 mps 749 mmHg 61%
    15:00 +25°C° 0 mm 3 mps 749 mmHg 60%
    16:00 +25°C° 0 mm 3 mps 748 mmHg 59%
    17:00 +24°C° 0 mm 3 mps 748 mmHg 65%
    18:00 +21°C° 0 mm 2 mps 748 mmHg 70%
    19:00 +20°C° 0 mm 2 mps 748 mmHg 75%
    20:00 +19°C° 0 mm 2 mps 748 mmHg 77%
    21:00 +19°C° 0 mm 2 mps 748 mmHg 78%
    22:00 +19°C° 0 mm 2 mps 748 mmHg 80%
    23:00 +18°C° 0 mm 2 mps 747 mmHg 82%

    Tomorrow, 24 February, Saturday

    Time Temperature Precipitation Wind Pressure Humidity
    00:00 +18°C° 0 mm 2 mps 747 mmHg 84%
    01:00 +17°C° 0 mm 2 mps 747 mmHg 85%
    02:00 +17°C° 0 mm 2 mps 746 mmHg 88%
    03:00 +16°C° 0 mm 2 mps 746 mmHg 90%
    04:00 +16°C° 0 mm 2 mps 746 mmHg 93%
    05:00 +16°C° 0 mm 2 mps 746 mmHg 93%
    06:00 +16°C° 0 mm 2 mps 745 mmHg 93%
    07:00 +16°C° 0 mm 2 mps 745 mmHg 94%
    08:00 +17°C° 0 mm 3 mps 745 mmHg 89%
    09:00 +18°C° 0 mm 3 mps 745 mmHg 84%
    10:00 +19°C° 0 mm 4 mps 745 mmHg 80%
    11:00 +20°C° 0 mm 4 mps 745 mmHg 76%
    12:00 +21°C° 0 mm 4 mps 745 mmHg 73%
    13:00 +22°C° 0 mm 4 mps 744 mmHg 70%
    14:00 +22°C° 0.1 mm 3 mps 744 mmHg 70%
    15:00 +24°C° 0.1 mm 3 mps 743 mmHg 69%
    16:00 +24°C° 0.1 mm 2 mps 742 mmHg 69%
    17:00 +23°C° 0 mm 2 mps 743 mmHg 73%
    18:00 +21°C° 0 mm 2 mps 743 mmHg 77%
    19:00 +20°C° 0 mm 2 mps 743 mmHg 80%
    20:00 +20°C° 0.1 mm 2 mps 743 mmHg 82%
    21:00 +19°C° 0.1 mm 3 mps 743 mmHg 83%
    22:00 +19°C° 0.1 mm 3 mps 743 mmHg 84%
    23:00 +19°C° 0 mm 4 mps 742 mmHg 85%

    Day after tomorrow, 25 February, Sunday

    Time Temperature Precipitation Wind Pressure Humidity
    00:00 +19°C° 0 mm 4 mps 742 mmHg 85%
    01:00 +19°C° 0 mm 4 mps 741 mmHg 85%
    02:00 +19°C° 0.1 mm 5 mps 741 mmHg 85%
    03:00 +17°C° 0.1 mm 5 mps 740 mmHg 85%
    04:00 +17°C° 0.1 mm 5 mps 740 mmHg 85%
    05:00 +17°C° 0 mm 5 mps 740 mmHg 87%
    06:00 +17°C° 0 mm 5 mps 740 mmHg 88%
    07:00 +17°C° 0 mm 5 mps 740 mmHg 89%
    08:00 +19°C° 0.1 mm 5 mps 740 mmHg 86%
    09:00 +19°C° 0.1 mm 6 mps 741 mmHg 82%
    10:00 +20°C° 0.1 mm 6 mps 741 mmHg 78%
    11:00 +20°C° 0.6 mm 6 mps 741 mmHg 80%
    12:00 +20°C° 0.6 mm 6 mps 740 mmHg 82%
    13:00 +20°C° 0.6 mm 5 mps 740 mmHg 83%
    14:00 +20°C° 1.5 mm 5 mps 740 mmHg 85%
    15:00 +20°C° 1.5 mm 5 mps 740 mmHg 87%
    16:00 +20°C° 1.5 mm 4 mps 740 mmHg 89%
    17:00 +19°C° 0.1 mm 4 mps 740 mmHg 89%
    18:00 +19°C° 0.1 mm 3 mps 740 mmHg 88%
    19:00 +18°C° 0.1 mm 3 mps 740 mmHg 88%
    20:00 +18°C° 0 mm 3 mps 741 mmHg 84%
    21:00 +17°C° 0 mm 3 mps 741 mmHg 80%
    22:00 +16°C° 0 mm 3 mps 742 mmHg 77%
    23:00 +16°C° 0 mm 3 mps 742 mmHg 76%

    26 February, Monday

    Time Temperature Precipitation Wind Pressure Humidity
    00:00 +14°C° 0 mm 3 mps 742 mmHg 76%
    01:00 +14°C° 0 mm 3 mps 742 mmHg 75%
    02:00 +15°C° 0 mm 2 mps 742 mmHg 75%
    03:00 +14°C° 0 mm 2 mps 742 mmHg 75%
    04:00 +14°C° 0 mm 2 mps 742 mmHg 75%
    05:00 +14°C° 0 mm 2 mps 742 mmHg 76%
    06:00 +14°C° 0 mm 1 mps 743 mmHg 76%
    07:00 +13°C° 0 mm 1 mps 743 mmHg 77%
    08:00 +14°C° 0 mm 1 mps 744 mmHg 74%
    09:00 +15°C° 0 mm 2 mps 744 mmHg 71%
    10:00 +15°C° 0 mm 2 mps 745 mmHg 68%
    11:00 +16°C° 0 mm 2 mps 745 mmHg 60%
    12:00 +17°C° 0 mm 2 mps 745 mmHg 52%
    13:00 +19°C° 0 mm 3 mps 745 mmHg 45%
    14:00 +19°C° 0 mm 2 mps 745 mmHg 42%
    15:00 +19°C° 0 mm 2 mps 745 mmHg 40%
    16:00 +19°C° 0 mm 2 mps 745 mmHg 37%
    17:00 +17°C° 0 mm 2 mps 746 mmHg 42%
    18:00 +15°C° 0 mm 2 mps 746 mmHg 47%
    19:00 +13°C° 0 mm 2 mps 747 mmHg 52%
    20:00 +12°C° 0 mm 2 mps 747 mmHg 53%
    21:00 +10°C° 0 mm 2 mps 748 mmHg 54%
    22:00 +10°C° 0 mm 2 mps 748 mmHg 55%
    23:00 +9°C° 0 mm 2 mps 748 mmHg 56%

    27 February, Tuesday

    Time Temperature Precipitation Wind Pressure Humidity
    00:00 +8°C° 0 mm 2 mps 748 mmHg 57%
    01:00 +7°C° 0 mm 2 mps 748 mmHg 58%
    02:00 +7°C° 0 mm 2 mps 748 mmHg 59%
    03:00 +7°C° 0 mm 2 mps 749 mmHg 60%
    04:00 +7°C° 0 mm 1 mps 749 mmHg 61%
    05:00 +7°C° 0 mm 1 mps 749 mmHg 62%
    06:00 +6°C° 0 mm 1 mps 749 mmHg 62%
    07:00 +6°C° 0 mm 1 mps 750 mmHg 63%
    08:00 +8°C° 0 mm 1 mps 750 mmHg 58%
    09:00 +9°C° 0 mm 2 mps 750 mmHg 52%
    10:00 +13°C° 0 mm 2 mps 751 mmHg 47%
    11:00 +14°C° 0 mm 2 mps 750 mmHg 44%
    12:00 +16°C° 0 mm 2 mps 750 mmHg 40%
    13:00 +17°C° 0 mm 2 mps 749 mmHg 37%
    14:00 +17°C° 0 mm 2 mps 749 mmHg 38%
    15:00 +18°C° 0 mm 2 mps 748 mmHg 38%
    16:00 +18°C° 0 mm 2 mps 747 mmHg 39%
    17:00 +16°C° 0 mm 2 mps 747 mmHg 45%
    18:00 +14°C° 0 mm 1 mps 747 mmHg 51%
    19:00 +12°C° 0 mm 1 mps 747 mmHg 57%
    20:00 +12°C° 0 mm 1 mps 747 mmHg 59%
    21:00 +11°C° 0 mm 1 mps 747 mmHg 61%
    22:00 +11°C° 0 mm 1 mps 747 mmHg 63%
    23:00 +11°C° 0 mm 1 mps 747 mmHg 67%

    28 February, Wednesday

    Time Temperature Precipitation Wind Pressure Humidity
    00:00 +11°C° 0 mm 1 mps 746 mmHg 71%
    01:00 +11°C° 0 mm 1 mps 746 mmHg 75%
    02:00 +11°C° 0 mm 1 mps 745 mmHg 78%
    03:00 +11°C° 0 mm 1 mps 745 mmHg 81%
    04:00 +11°C° 0 mm 1 mps 745 mmHg 84%
    05:00 +11°C° 0.2 mm 1 mps 745 mmHg 87%
    06:00 +11°C° 0.2 mm 1 mps 745 mmHg 89%
    07:00 +11°C° 0.2 mm 1 mps 745 mmHg 92%
    08:00 +12°C° 0.5 mm 1 mps 744 mmHg 92%
    09:00 +12°C° 0.5 mm 1 mps 744 mmHg 91%
    10:00 +13°C° 0.5 mm 1 mps 744 mmHg 91%
    11:00 +13°C° 1.4 mm 2 mps 743 mmHg 92%
    12:00 +13°C° 1.4 mm 2 mps 743 mmHg 93%
    13:00 +13°C° 1.4 mm 3 mps 742 mmHg 94%
    14:00 +14°C° 1 mm 2 mps 741 mmHg 94%
    15:00 +14°C° 1 mm 2 mps 741 mmHg 95%
    16:00 +14°C° 1 mm 2 mps 740 mmHg 96%
    17:00 +14°C° 0.4 mm 2 mps 740 mmHg 96%
    18:00 +15°C° 0.4 mm 2 mps 740 mmHg 97%
    19:00 +15°C° 0.4 mm 2 mps 740 mmHg 98%
    20:00 +15°C° 0.1 mm 2 mps 739 mmHg 98%
    21:00 +15°C° 0.1 mm 2 mps 739 mmHg 98%
    22:00 +14°C° 0.1 mm 3 mps 738 mmHg 98%
    23:00 +16°C° 0.3 mm 3 mps 738 mmHg 98%
    Show more